<?xml version="1.0"?>
<gpx xmlns="http://www.topografix.com/GPX/1/1" xmlns:xsi="http://www.w3.org/2001/XMLSchema-instance" version="1.1" creator="GPX RubyGem 1.0.0 -- http://dougfales.github.io/gpx/" xsi:schemaLocation="http://www.topografix.com/GPX/1/1 http://www.topografix.com/GPX/1/1/gpx.xsd">
  <metadata>
    <name/>
    <time>2026-05-08T01:39:24+00:00</time>
    <bound minlat="90.0" minlon="180.0" maxlat="-90.0" maxlon="-180.0"/>
  </metadata>
  <trk>
    <name/>
    <trkseg>
      <trkpt lat="47.467183" lon="13.851168">
        <time>1970-01-01T00:00:00+00:00</time>
        <ele>937.0</ele>
      </trkpt>
      <trkpt lat="47.467221" lon="13.850919">
        <time>1970-01-01T00:00:00+00:00</time>
        <ele>939.0</ele>
      </trkpt>
      <trkpt lat="47.467261" lon="13.850811">
        <time>1970-01-01T00:00:00+00:00</time>
        <ele>940.0</ele>
      </trkpt>
      <trkpt lat="47.467379" lon="13.850602">
        <time>1970-01-01T00:00:00+00:00</time>
        <ele>944.0</ele>
      </trkpt>
      <trkpt lat="47.46746" lon="13.850506">
        <time>1970-01-01T00:00:00+00:00</time>
        <ele>945.0</ele>
      </trkpt>
      <trkpt lat="47.467597" lon="13.850403">
        <time>1970-01-01T00:00:00+00:00</time>
        <ele>949.0</ele>
      </trkpt>
      <trkpt lat="47.467964" lon="13.850207">
        <time>1970-01-01T00:00:00+00:00</time>
        <ele>965.0</ele>
      </trkpt>
      <trkpt lat="47.468465" lon="13.84988">
        <time>1970-01-01T00:00:00+00:00</time>
        <ele>1002.0</ele>
      </trkpt>
      <trkpt lat="47.468567" lon="13.849735">
        <time>1970-01-01T00:00:00+00:00</time>
        <ele>1011.0</ele>
      </trkpt>
      <trkpt lat="47.468726" lon="13.849425">
        <time>1970-01-01T00:00:00+00:00</time>
        <ele>1036.0</ele>
      </trkpt>
      <trkpt lat="47.468959" lon="13.849052">
        <time>1970-01-01T00:00:00+00:00</time>
        <ele>1081.0</ele>
      </trkpt>
      <trkpt lat="47.468966" lon="13.848959">
        <time>1970-01-01T00:00:00+00:00</time>
        <ele>1088.0</ele>
      </trkpt>
      <trkpt lat="47.469024" lon="13.848977">
        <time>1970-01-01T00:00:00+00:00</time>
        <ele>1090.0</ele>
      </trkpt>
      <trkpt lat="47.469107" lon="13.849066">
        <time>1970-01-01T00:00:00+00:00</time>
        <ele>1089.0</ele>
      </trkpt>
      <trkpt lat="47.469192" lon="13.849042">
        <time>1970-01-01T00:00:00+00:00</time>
        <ele>1095.0</ele>
      </trkpt>
      <trkpt lat="47.469304" lon="13.849058">
        <time>1970-01-01T00:00:00+00:00</time>
        <ele>1098.0</ele>
      </trkpt>
      <trkpt lat="47.469336" lon="13.849024">
        <time>1970-01-01T00:00:00+00:00</time>
        <ele>1101.0</ele>
      </trkpt>
      <trkpt lat="47.469369" lon="13.849124">
        <time>1970-01-01T00:00:00+00:00</time>
        <ele>1094.0</ele>
      </trkpt>
      <trkpt lat="47.469431" lon="13.849007">
        <time>1970-01-01T00:00:00+00:00</time>
        <ele>1103.0</ele>
      </trkpt>
      <trkpt lat="47.469466" lon="13.849122">
        <time>1970-01-01T00:00:00+00:00</time>
        <ele>1095.0</ele>
      </trkpt>
      <trkpt lat="47.469566" lon="13.849249">
        <time>1970-01-01T00:00:00+00:00</time>
        <ele>1085.0</ele>
      </trkpt>
      <trkpt lat="47.469604" lon="13.849248">
        <time>1970-01-01T00:00:00+00:00</time>
        <ele>1085.0</ele>
      </trkpt>
      <trkpt lat="47.469651" lon="13.849177">
        <time>1970-01-01T00:00:00+00:00</time>
        <ele>1090.0</ele>
      </trkpt>
      <trkpt lat="47.469669" lon="13.849107">
        <time>1970-01-01T00:00:00+00:00</time>
        <ele>1094.0</ele>
      </trkpt>
      <trkpt lat="47.469646" lon="13.848911">
        <time>1970-01-01T00:00:00+00:00</time>
        <ele>1105.0</ele>
      </trkpt>
      <trkpt lat="47.46967" lon="13.848882">
        <time>1970-01-01T00:00:00+00:00</time>
        <ele>1106.0</ele>
      </trkpt>
      <trkpt lat="47.469706" lon="13.848895">
        <time>1970-01-01T00:00:00+00:00</time>
        <ele>1105.0</ele>
      </trkpt>
      <trkpt lat="47.469742" lon="13.848958">
        <time>1970-01-01T00:00:00+00:00</time>
        <ele>1100.0</ele>
      </trkpt>
      <trkpt lat="47.469787" lon="13.849207">
        <time>1970-01-01T00:00:00+00:00</time>
        <ele>1086.0</ele>
      </trkpt>
      <trkpt lat="47.469775" lon="13.849281">
        <time>1970-01-01T00:00:00+00:00</time>
        <ele>1082.0</ele>
      </trkpt>
      <trkpt lat="47.469646" lon="13.849528">
        <time>1970-01-01T00:00:00+00:00</time>
        <ele>1067.0</ele>
      </trkpt>
      <trkpt lat="47.46964" lon="13.849586">
        <time>1970-01-01T00:00:00+00:00</time>
        <ele>1063.0</ele>
      </trkpt>
      <trkpt lat="47.469656" lon="13.849621">
        <time>1970-01-01T00:00:00+00:00</time>
        <ele>1062.0</ele>
      </trkpt>
      <trkpt lat="47.469683" lon="13.849646">
        <time>1970-01-01T00:00:00+00:00</time>
        <ele>1063.0</ele>
      </trkpt>
      <trkpt lat="47.469724" lon="13.849642">
        <time>1970-01-01T00:00:00+00:00</time>
        <ele>1064.0</ele>
      </trkpt>
      <trkpt lat="47.470191" lon="13.849326">
        <time>1970-01-01T00:00:00+00:00</time>
        <ele>1074.0</ele>
      </trkpt>
      <trkpt lat="47.470255" lon="13.849245">
        <time>1970-01-01T00:00:00+00:00</time>
        <ele>1074.0</ele>
      </trkpt>
      <trkpt lat="47.47027" lon="13.849085">
        <time>1970-01-01T00:00:00+00:00</time>
        <ele>1075.0</ele>
      </trkpt>
      <trkpt lat="47.470268" lon="13.849023">
        <time>1970-01-01T00:00:00+00:00</time>
        <ele>1077.0</ele>
      </trkpt>
      <trkpt lat="47.470289" lon="13.848914">
        <time>1970-01-01T00:00:00+00:00</time>
        <ele>1080.0</ele>
      </trkpt>
      <trkpt lat="47.470468" lon="13.848783">
        <time>1970-01-01T00:00:00+00:00</time>
        <ele>1078.0</ele>
      </trkpt>
      <trkpt lat="47.470653" lon="13.848609">
        <time>1970-01-01T00:00:00+00:00</time>
        <ele>1081.0</ele>
      </trkpt>
      <trkpt lat="47.47097" lon="13.848169">
        <time>1970-01-01T00:00:00+00:00</time>
        <ele>1090.0</ele>
      </trkpt>
      <trkpt lat="47.471048" lon="13.848085">
        <time>1970-01-01T00:00:00+00:00</time>
        <ele>1092.0</ele>
      </trkpt>
      <trkpt lat="47.471139" lon="13.848006">
        <time>1970-01-01T00:00:00+00:00</time>
        <ele>1092.0</ele>
      </trkpt>
      <trkpt lat="47.471227" lon="13.84796">
        <time>1970-01-01T00:00:00+00:00</time>
        <ele>1093.0</ele>
      </trkpt>
      <trkpt lat="47.471479" lon="13.847927">
        <time>1970-01-01T00:00:00+00:00</time>
        <ele>1090.0</ele>
      </trkpt>
      <trkpt lat="47.471652" lon="13.847811">
        <time>1970-01-01T00:00:00+00:00</time>
        <ele>1091.0</ele>
      </trkpt>
      <trkpt lat="47.471735" lon="13.847807">
        <time>1970-01-01T00:00:00+00:00</time>
        <ele>1089.0</ele>
      </trkpt>
      <trkpt lat="47.471861" lon="13.847857">
        <time>1970-01-01T00:00:00+00:00</time>
        <ele>1084.0</ele>
      </trkpt>
      <trkpt lat="47.472003" lon="13.847869">
        <time>1970-01-01T00:00:00+00:00</time>
        <ele>1080.0</ele>
      </trkpt>
      <trkpt lat="47.472277" lon="13.847805">
        <time>1970-01-01T00:00:00+00:00</time>
        <ele>1075.0</ele>
      </trkpt>
      <trkpt lat="47.472365" lon="13.847813">
        <time>1970-01-01T00:00:00+00:00</time>
        <ele>1072.0</ele>
      </trkpt>
      <trkpt lat="47.472553" lon="13.847894">
        <time>1970-01-01T00:00:00+00:00</time>
        <ele>1068.0</ele>
      </trkpt>
      <trkpt lat="47.472884" lon="13.848099">
        <time>1970-01-01T00:00:00+00:00</time>
        <ele>1069.0</ele>
      </trkpt>
      <trkpt lat="47.473064" lon="13.848082">
        <time>1970-01-01T00:00:00+00:00</time>
        <ele>1074.0</ele>
      </trkpt>
      <trkpt lat="47.473258" lon="13.847943">
        <time>1970-01-01T00:00:00+00:00</time>
        <ele>1077.0</ele>
      </trkpt>
      <trkpt lat="47.473317" lon="13.847832">
        <time>1970-01-01T00:00:00+00:00</time>
        <ele>1076.0</ele>
      </trkpt>
      <trkpt lat="47.473422" lon="13.847396">
        <time>1970-01-01T00:00:00+00:00</time>
        <ele>1073.0</ele>
      </trkpt>
      <trkpt lat="47.473465" lon="13.84729">
        <time>1970-01-01T00:00:00+00:00</time>
        <ele>1073.0</ele>
      </trkpt>
      <trkpt lat="47.473555" lon="13.847178">
        <time>1970-01-01T00:00:00+00:00</time>
        <ele>1074.0</ele>
      </trkpt>
      <trkpt lat="47.47374" lon="13.847025">
        <time>1970-01-01T00:00:00+00:00</time>
        <ele>1074.0</ele>
      </trkpt>
      <trkpt lat="47.473855" lon="13.846866">
        <time>1970-01-01T00:00:00+00:00</time>
        <ele>1075.0</ele>
      </trkpt>
      <trkpt lat="47.474119" lon="13.846586">
        <time>1970-01-01T00:00:00+00:00</time>
        <ele>1079.0</ele>
      </trkpt>
      <trkpt lat="47.474197" lon="13.846538">
        <time>1970-01-01T00:00:00+00:00</time>
        <ele>1080.0</ele>
      </trkpt>
      <trkpt lat="47.474427" lon="13.846471">
        <time>1970-01-01T00:00:00+00:00</time>
        <ele>1095.0</ele>
      </trkpt>
      <trkpt lat="47.474687" lon="13.846283">
        <time>1970-01-01T00:00:00+00:00</time>
        <ele>1118.0</ele>
      </trkpt>
      <trkpt lat="47.474727" lon="13.846192">
        <time>1970-01-01T00:00:00+00:00</time>
        <ele>1119.0</ele>
      </trkpt>
      <trkpt lat="47.474745" lon="13.846106">
        <time>1970-01-01T00:00:00+00:00</time>
        <ele>1118.0</ele>
      </trkpt>
      <trkpt lat="47.474751" lon="13.84601">
        <time>1970-01-01T00:00:00+00:00</time>
        <ele>1116.0</ele>
      </trkpt>
      <trkpt lat="47.474735" lon="13.845869">
        <time>1970-01-01T00:00:00+00:00</time>
        <ele>1110.0</ele>
      </trkpt>
      <trkpt lat="47.474639" lon="13.845328">
        <time>1970-01-01T00:00:00+00:00</time>
        <ele>1090.0</ele>
      </trkpt>
      <trkpt lat="47.474497" lon="13.844878">
        <time>1970-01-01T00:00:00+00:00</time>
        <ele>1088.0</ele>
      </trkpt>
      <trkpt lat="47.474439" lon="13.844633">
        <time>1970-01-01T00:00:00+00:00</time>
        <ele>1092.0</ele>
      </trkpt>
      <trkpt lat="47.474412" lon="13.844252">
        <time>1970-01-01T00:00:00+00:00</time>
        <ele>1102.0</ele>
      </trkpt>
      <trkpt lat="47.47447" lon="13.843975">
        <time>1970-01-01T00:00:00+00:00</time>
        <ele>1110.0</ele>
      </trkpt>
      <trkpt lat="47.474731" lon="13.843305">
        <time>1970-01-01T00:00:00+00:00</time>
        <ele>1112.0</ele>
      </trkpt>
      <trkpt lat="47.474823" lon="13.842962">
        <time>1970-01-01T00:00:00+00:00</time>
        <ele>1114.0</ele>
      </trkpt>
      <trkpt lat="47.474991" lon="13.842456">
        <time>1970-01-01T00:00:00+00:00</time>
        <ele>1124.0</ele>
      </trkpt>
      <trkpt lat="47.475111" lon="13.841857">
        <time>1970-01-01T00:00:00+00:00</time>
        <ele>1127.0</ele>
      </trkpt>
      <trkpt lat="47.47515" lon="13.841326">
        <time>1970-01-01T00:00:00+00:00</time>
        <ele>1125.0</ele>
      </trkpt>
      <trkpt lat="47.475209" lon="13.84116">
        <time>1970-01-01T00:00:00+00:00</time>
        <ele>1123.0</ele>
      </trkpt>
      <trkpt lat="47.475306" lon="13.840974">
        <time>1970-01-01T00:00:00+00:00</time>
        <ele>1122.0</ele>
      </trkpt>
      <trkpt lat="47.475726" lon="13.840446">
        <time>1970-01-01T00:00:00+00:00</time>
        <ele>1130.0</ele>
      </trkpt>
      <trkpt lat="47.47589" lon="13.840338">
        <time>1970-01-01T00:00:00+00:00</time>
        <ele>1133.0</ele>
      </trkpt>
      <trkpt lat="47.476017" lon="13.840333">
        <time>1970-01-01T00:00:00+00:00</time>
        <ele>1139.0</ele>
      </trkpt>
      <trkpt lat="47.476278" lon="13.840475">
        <time>1970-01-01T00:00:00+00:00</time>
        <ele>1145.0</ele>
      </trkpt>
      <trkpt lat="47.476456" lon="13.840546">
        <time>1970-01-01T00:00:00+00:00</time>
        <ele>1149.0</ele>
      </trkpt>
      <trkpt lat="47.476584" lon="13.840635">
        <time>1970-01-01T00:00:00+00:00</time>
        <ele>1150.0</ele>
      </trkpt>
      <trkpt lat="47.476699" lon="13.840755">
        <time>1970-01-01T00:00:00+00:00</time>
        <ele>1149.0</ele>
      </trkpt>
      <trkpt lat="47.476928" lon="13.841125">
        <time>1970-01-01T00:00:00+00:00</time>
        <ele>1147.0</ele>
      </trkpt>
      <trkpt lat="47.476928" lon="13.841125">
        <time>1970-01-01T00:00:00+00:00</time>
        <ele>1147.0</ele>
      </trkpt>
      <trkpt lat="47.476699" lon="13.840755">
        <time>1970-01-01T00:00:00+00:00</time>
        <ele>1149.0</ele>
      </trkpt>
      <trkpt lat="47.476584" lon="13.840635">
        <time>1970-01-01T00:00:00+00:00</time>
        <ele>1150.0</ele>
      </trkpt>
      <trkpt lat="47.476456" lon="13.840546">
        <time>1970-01-01T00:00:00+00:00</time>
        <ele>1149.0</ele>
      </trkpt>
      <trkpt lat="47.476278" lon="13.840475">
        <time>1970-01-01T00:00:00+00:00</time>
        <ele>1145.0</ele>
      </trkpt>
      <trkpt lat="47.476017" lon="13.840333">
        <time>1970-01-01T00:00:00+00:00</time>
        <ele>1139.0</ele>
      </trkpt>
      <trkpt lat="47.47589" lon="13.840338">
        <time>1970-01-01T00:00:00+00:00</time>
        <ele>1133.0</ele>
      </trkpt>
      <trkpt lat="47.475726" lon="13.840446">
        <time>1970-01-01T00:00:00+00:00</time>
        <ele>1130.0</ele>
      </trkpt>
      <trkpt lat="47.475306" lon="13.840974">
        <time>1970-01-01T00:00:00+00:00</time>
        <ele>1122.0</ele>
      </trkpt>
      <trkpt lat="47.475209" lon="13.84116">
        <time>1970-01-01T00:00:00+00:00</time>
        <ele>1123.0</ele>
      </trkpt>
      <trkpt lat="47.47515" lon="13.841326">
        <time>1970-01-01T00:00:00+00:00</time>
        <ele>1125.0</ele>
      </trkpt>
      <trkpt lat="47.475111" lon="13.841857">
        <time>1970-01-01T00:00:00+00:00</time>
        <ele>1127.0</ele>
      </trkpt>
      <trkpt lat="47.474991" lon="13.842456">
        <time>1970-01-01T00:00:00+00:00</time>
        <ele>1124.0</ele>
      </trkpt>
      <trkpt lat="47.474823" lon="13.842962">
        <time>1970-01-01T00:00:00+00:00</time>
        <ele>1114.0</ele>
      </trkpt>
      <trkpt lat="47.474731" lon="13.843305">
        <time>1970-01-01T00:00:00+00:00</time>
        <ele>1112.0</ele>
      </trkpt>
      <trkpt lat="47.47447" lon="13.843975">
        <time>1970-01-01T00:00:00+00:00</time>
        <ele>1110.0</ele>
      </trkpt>
      <trkpt lat="47.474412" lon="13.844252">
        <time>1970-01-01T00:00:00+00:00</time>
        <ele>1102.0</ele>
      </trkpt>
      <trkpt lat="47.474439" lon="13.844633">
        <time>1970-01-01T00:00:00+00:00</time>
        <ele>1092.0</ele>
      </trkpt>
      <trkpt lat="47.474497" lon="13.844878">
        <time>1970-01-01T00:00:00+00:00</time>
        <ele>1088.0</ele>
      </trkpt>
      <trkpt lat="47.474639" lon="13.845328">
        <time>1970-01-01T00:00:00+00:00</time>
        <ele>1090.0</ele>
      </trkpt>
      <trkpt lat="47.474735" lon="13.845869">
        <time>1970-01-01T00:00:00+00:00</time>
        <ele>1110.0</ele>
      </trkpt>
      <trkpt lat="47.474751" lon="13.84601">
        <time>1970-01-01T00:00:00+00:00</time>
        <ele>1116.0</ele>
      </trkpt>
      <trkpt lat="47.474745" lon="13.846106">
        <time>1970-01-01T00:00:00+00:00</time>
        <ele>1118.0</ele>
      </trkpt>
      <trkpt lat="47.474727" lon="13.846192">
        <time>1970-01-01T00:00:00+00:00</time>
        <ele>1119.0</ele>
      </trkpt>
      <trkpt lat="47.474687" lon="13.846283">
        <time>1970-01-01T00:00:00+00:00</time>
        <ele>1118.0</ele>
      </trkpt>
      <trkpt lat="47.474427" lon="13.846471">
        <time>1970-01-01T00:00:00+00:00</time>
        <ele>1095.0</ele>
      </trkpt>
      <trkpt lat="47.474197" lon="13.846538">
        <time>1970-01-01T00:00:00+00:00</time>
        <ele>1080.0</ele>
      </trkpt>
      <trkpt lat="47.474119" lon="13.846586">
        <time>1970-01-01T00:00:00+00:00</time>
        <ele>1079.0</ele>
      </trkpt>
      <trkpt lat="47.473855" lon="13.846866">
        <time>1970-01-01T00:00:00+00:00</time>
        <ele>1075.0</ele>
      </trkpt>
      <trkpt lat="47.47374" lon="13.847025">
        <time>1970-01-01T00:00:00+00:00</time>
        <ele>1074.0</ele>
      </trkpt>
      <trkpt lat="47.473555" lon="13.847178">
        <time>1970-01-01T00:00:00+00:00</time>
        <ele>1074.0</ele>
      </trkpt>
      <trkpt lat="47.473465" lon="13.84729">
        <time>1970-01-01T00:00:00+00:00</time>
        <ele>1073.0</ele>
      </trkpt>
      <trkpt lat="47.473422" lon="13.847396">
        <time>1970-01-01T00:00:00+00:00</time>
        <ele>1073.0</ele>
      </trkpt>
      <trkpt lat="47.473317" lon="13.847832">
        <time>1970-01-01T00:00:00+00:00</time>
        <ele>1076.0</ele>
      </trkpt>
      <trkpt lat="47.473258" lon="13.847943">
        <time>1970-01-01T00:00:00+00:00</time>
        <ele>1077.0</ele>
      </trkpt>
      <trkpt lat="47.473064" lon="13.848082">
        <time>1970-01-01T00:00:00+00:00</time>
        <ele>1074.0</ele>
      </trkpt>
      <trkpt lat="47.472884" lon="13.848099">
        <time>1970-01-01T00:00:00+00:00</time>
        <ele>1069.0</ele>
      </trkpt>
      <trkpt lat="47.472553" lon="13.847894">
        <time>1970-01-01T00:00:00+00:00</time>
        <ele>1068.0</ele>
      </trkpt>
      <trkpt lat="47.472365" lon="13.847813">
        <time>1970-01-01T00:00:00+00:00</time>
        <ele>1072.0</ele>
      </trkpt>
      <trkpt lat="47.472277" lon="13.847805">
        <time>1970-01-01T00:00:00+00:00</time>
        <ele>1075.0</ele>
      </trkpt>
      <trkpt lat="47.472003" lon="13.847869">
        <time>1970-01-01T00:00:00+00:00</time>
        <ele>1080.0</ele>
      </trkpt>
      <trkpt lat="47.471861" lon="13.847857">
        <time>1970-01-01T00:00:00+00:00</time>
        <ele>1084.0</ele>
      </trkpt>
      <trkpt lat="47.471735" lon="13.847807">
        <time>1970-01-01T00:00:00+00:00</time>
        <ele>1089.0</ele>
      </trkpt>
      <trkpt lat="47.471652" lon="13.847811">
        <time>1970-01-01T00:00:00+00:00</time>
        <ele>1091.0</ele>
      </trkpt>
      <trkpt lat="47.471479" lon="13.847927">
        <time>1970-01-01T00:00:00+00:00</time>
        <ele>1090.0</ele>
      </trkpt>
      <trkpt lat="47.471227" lon="13.84796">
        <time>1970-01-01T00:00:00+00:00</time>
        <ele>1093.0</ele>
      </trkpt>
      <trkpt lat="47.471139" lon="13.848006">
        <time>1970-01-01T00:00:00+00:00</time>
        <ele>1092.0</ele>
      </trkpt>
      <trkpt lat="47.471048" lon="13.848085">
        <time>1970-01-01T00:00:00+00:00</time>
        <ele>1092.0</ele>
      </trkpt>
      <trkpt lat="47.47097" lon="13.848169">
        <time>1970-01-01T00:00:00+00:00</time>
        <ele>1090.0</ele>
      </trkpt>
      <trkpt lat="47.470653" lon="13.848609">
        <time>1970-01-01T00:00:00+00:00</time>
        <ele>1081.0</ele>
      </trkpt>
      <trkpt lat="47.470468" lon="13.848783">
        <time>1970-01-01T00:00:00+00:00</time>
        <ele>1078.0</ele>
      </trkpt>
      <trkpt lat="47.470289" lon="13.848914">
        <time>1970-01-01T00:00:00+00:00</time>
        <ele>1080.0</ele>
      </trkpt>
      <trkpt lat="47.470268" lon="13.849023">
        <time>1970-01-01T00:00:00+00:00</time>
        <ele>1077.0</ele>
      </trkpt>
      <trkpt lat="47.47027" lon="13.849085">
        <time>1970-01-01T00:00:00+00:00</time>
        <ele>1075.0</ele>
      </trkpt>
      <trkpt lat="47.470255" lon="13.849245">
        <time>1970-01-01T00:00:00+00:00</time>
        <ele>1074.0</ele>
      </trkpt>
      <trkpt lat="47.470191" lon="13.849326">
        <time>1970-01-01T00:00:00+00:00</time>
        <ele>1074.0</ele>
      </trkpt>
      <trkpt lat="47.469724" lon="13.849642">
        <time>1970-01-01T00:00:00+00:00</time>
        <ele>1064.0</ele>
      </trkpt>
      <trkpt lat="47.469683" lon="13.849646">
        <time>1970-01-01T00:00:00+00:00</time>
        <ele>1063.0</ele>
      </trkpt>
      <trkpt lat="47.469656" lon="13.849621">
        <time>1970-01-01T00:00:00+00:00</time>
        <ele>1062.0</ele>
      </trkpt>
      <trkpt lat="47.46964" lon="13.849586">
        <time>1970-01-01T00:00:00+00:00</time>
        <ele>1063.0</ele>
      </trkpt>
      <trkpt lat="47.469646" lon="13.849528">
        <time>1970-01-01T00:00:00+00:00</time>
        <ele>1067.0</ele>
      </trkpt>
      <trkpt lat="47.469775" lon="13.849281">
        <time>1970-01-01T00:00:00+00:00</time>
        <ele>1082.0</ele>
      </trkpt>
      <trkpt lat="47.469787" lon="13.849207">
        <time>1970-01-01T00:00:00+00:00</time>
        <ele>1086.0</ele>
      </trkpt>
      <trkpt lat="47.469742" lon="13.848958">
        <time>1970-01-01T00:00:00+00:00</time>
        <ele>1100.0</ele>
      </trkpt>
      <trkpt lat="47.469706" lon="13.848895">
        <time>1970-01-01T00:00:00+00:00</time>
        <ele>1105.0</ele>
      </trkpt>
      <trkpt lat="47.46967" lon="13.848882">
        <time>1970-01-01T00:00:00+00:00</time>
        <ele>1106.0</ele>
      </trkpt>
      <trkpt lat="47.469646" lon="13.848911">
        <time>1970-01-01T00:00:00+00:00</time>
        <ele>1105.0</ele>
      </trkpt>
      <trkpt lat="47.469669" lon="13.849107">
        <time>1970-01-01T00:00:00+00:00</time>
        <ele>1094.0</ele>
      </trkpt>
      <trkpt lat="47.469651" lon="13.849177">
        <time>1970-01-01T00:00:00+00:00</time>
        <ele>1090.0</ele>
      </trkpt>
      <trkpt lat="47.469604" lon="13.849248">
        <time>1970-01-01T00:00:00+00:00</time>
        <ele>1085.0</ele>
      </trkpt>
      <trkpt lat="47.469566" lon="13.849249">
        <time>1970-01-01T00:00:00+00:00</time>
        <ele>1085.0</ele>
      </trkpt>
      <trkpt lat="47.469466" lon="13.849122">
        <time>1970-01-01T00:00:00+00:00</time>
        <ele>1095.0</ele>
      </trkpt>
      <trkpt lat="47.469431" lon="13.849007">
        <time>1970-01-01T00:00:00+00:00</time>
        <ele>1103.0</ele>
      </trkpt>
      <trkpt lat="47.469369" lon="13.849124">
        <time>1970-01-01T00:00:00+00:00</time>
        <ele>1094.0</ele>
      </trkpt>
      <trkpt lat="47.469336" lon="13.849024">
        <time>1970-01-01T00:00:00+00:00</time>
        <ele>1101.0</ele>
      </trkpt>
      <trkpt lat="47.469304" lon="13.849058">
        <time>1970-01-01T00:00:00+00:00</time>
        <ele>1098.0</ele>
      </trkpt>
      <trkpt lat="47.469192" lon="13.849042">
        <time>1970-01-01T00:00:00+00:00</time>
        <ele>1095.0</ele>
      </trkpt>
      <trkpt lat="47.469107" lon="13.849066">
        <time>1970-01-01T00:00:00+00:00</time>
        <ele>1089.0</ele>
      </trkpt>
      <trkpt lat="47.469024" lon="13.848977">
        <time>1970-01-01T00:00:00+00:00</time>
        <ele>1090.0</ele>
      </trkpt>
      <trkpt lat="47.468966" lon="13.848959">
        <time>1970-01-01T00:00:00+00:00</time>
        <ele>1088.0</ele>
      </trkpt>
      <trkpt lat="47.468959" lon="13.849052">
        <time>1970-01-01T00:00:00+00:00</time>
        <ele>1081.0</ele>
      </trkpt>
      <trkpt lat="47.468726" lon="13.849425">
        <time>1970-01-01T00:00:00+00:00</time>
        <ele>1036.0</ele>
      </trkpt>
      <trkpt lat="47.468567" lon="13.849735">
        <time>1970-01-01T00:00:00+00:00</time>
        <ele>1011.0</ele>
      </trkpt>
      <trkpt lat="47.468465" lon="13.84988">
        <time>1970-01-01T00:00:00+00:00</time>
        <ele>1002.0</ele>
      </trkpt>
      <trkpt lat="47.467964" lon="13.850207">
        <time>1970-01-01T00:00:00+00:00</time>
        <ele>965.0</ele>
      </trkpt>
      <trkpt lat="47.467597" lon="13.850403">
        <time>1970-01-01T00:00:00+00:00</time>
        <ele>949.0</ele>
      </trkpt>
      <trkpt lat="47.46746" lon="13.850506">
        <time>1970-01-01T00:00:00+00:00</time>
        <ele>945.0</ele>
      </trkpt>
      <trkpt lat="47.467379" lon="13.850602">
        <time>1970-01-01T00:00:00+00:00</time>
        <ele>944.0</ele>
      </trkpt>
      <trkpt lat="47.467261" lon="13.850811">
        <time>1970-01-01T00:00:00+00:00</time>
        <ele>940.0</ele>
      </trkpt>
      <trkpt lat="47.467221" lon="13.850919">
        <time>1970-01-01T00:00:00+00:00</time>
        <ele>939.0</ele>
      </trkpt>
      <trkpt lat="47.467183" lon="13.851168">
        <time>1970-01-01T00:00:00+00:00</time>
        <ele>937.0</ele>
      </trkpt>
    </trkseg>
  </trk>
</gpx>
